Location: Bletchingley
(51.2333°N, 0.1000°W)
Time: 22:09:02
(UTC+00:00)

DMSP B5D2-2 - Pass Details

Date: 18 September 2020
Orbit: 790 x 806 km, 98.3° (Epoch: 30 October)

Event Time Altitude Azimuth Distance (km) Brightness Sun altitude
Rises 20:18:20 0° 13° (NNE) 3,335 7.5 -20.4°
Reaches altitude 10° 20:20:41 10° 11° (NNE) 2,400 6.8 -20.7°
Maximum altitude 20:25:59 73° 289° (WNW) 847 4.3 -21.4°
Drops below altitude 10° 20:31:14 10° 205° (SSW) 2,382 6.5 -22.1°
Sets 20:33:34 0° 203° (SSW) 3,308 7.2 -22.4°
